Wind_Speed
11 12 12 12 12 11 10 9 10 10 10 9 8 8 8 8 8 9 9 10 10 10 10 11 11 11 11 11 10 10 9 9 9 9 9 9 9 9 9 9 9 10 10 11
13 13 13 13 12 11 10 10 10 11 10 10 10 9 9 9 9 9 10 10 11 11 11 11 11 11 12 11 11 11 11 10 10 10 10 10 10 10 11 11 11 11 12 12
14 15 15 14 12 12 12 10 11 11 11 12 12 11 10 10 10 11 11 11 11 11 11 11 11 11 12 12 12 12 12 11 11 11 11 12 12 12 12 12 13 13 13 13
17 17 17 14 14 14 13 13 13 12 12 13 13 13 12 11 10 11 12 12 11 12 12 12 12 12 13 13 13 13 13 13 13 13 13 13 14 14 14 14 14 15 15 15
19 18 17 15 15 16 15 14 14 13 13 13 14 14 13 12 12 12 12 13 12 13 13 13 14 14 14 14 13 14 14 14 14 15 15 15 15 15 16 16 16 17 17 18
20 19 19 16 16 18 17 16 15 15 14 14 14 14 13 13 13 14 14 14 14 14 14 14 14 14 15 15 14 15 15 15 16 16 16 16 16 17 18 18 18 19 19 20
21 20 19 17 18 18 19 16 16 16 15 14 14 13 14 14 14 15 15 16 16 15 15 15 15 16 16 16 15 16 16 17 17 17 17 18 18 19 20 20 20 21 21 22
23 23 20 19 19 18 18 17 17 16 16 15 14 15 15 15 15 16 17 17 17 17 17 17 17 17 17 17 17 18 18 18 18 18 19 19 20 21 21 22 22 22 23 24
25 24 21 21 21 20 19 19 18 18 17 17 16 16 16 16 17 17 18 18 18 18 18 18 18 18 18 19 19 19 20 20 20 20 21 21 22 23 23 24 24 24 25 25
26 25 24 23 23 22 21 20 20 20 19 18 17 17 17 17 18 18 18 19 19 19 20 20 19 19 19 20 21 21 22 22 22 22 23 24 24 25 25 26 26 26 27 27
28 27 26 24 24 23 22 22 22 21 20 20 19 18 19 19 20 19 19 19 20 20 20 20 20 21 21 21 22 23 23 24 24 24 25 25 26 26 27 27 28 28 28 29
28 28 27 26 25 24 25 24 24 23 22 22 21 20 20 20 20 21 21 21 22 22 21 22 22 23 23 23 23 24 25 25 26 26 26 26 27 28 28 29 29 30 30 31
28 29 29 28 28 27 26 26 26 25 25 24 23 22 22 22 22 22 22 22 23 23 23 24 24 24 24 25 25 25 26 26 26 27 27 28 28 29 29 30 31 31 32 33
29 30 29 28 28 28 28 27 26 26 26 25 25 24 23 23 24 24 24 24 24 24 25 25 25 25 25 26 26 26 26 27 27 27 28 29 29 30 31 32 32 33 34 34
30 29 29 29 28 28 28 29 29 27 26 26 26 26 26 26 26 26 26 26 26 26 26 26 26 26 27 27 27 28 28 28 29 29 30 31 32 32 33 33 34 35 35 35
31 31 30 30 30 29 29 29 29 29 28 27 27 27 27 28 28 28 28 27 27 27 28 28 28 28 29 29 29 29 29 30 30 31 32 33 33 34 35 35 36 36 36 36
32 32 32 32 31 31 31 31 31 30 30 29 28 27 27 28 28 28 28 28 28 28 29 29 29 30 30 31 31 31 32 33 33 34 34 35 35 35 36 36 36 37 37 38
33 33 34 33 33 33 32 32 32 32 31 30 30 29 28 28 28 29 29 30 30 30 30 30 31 31 32 32 33 34 35 35 36 36 36 36 36 37 37 37 38 38 39 39
34 34 34 34 34 33 33 32 32 33 33 32 32 31 30 30 30 30 30 31 31 31 32 32 32 33 33 34 34 34 35 36 36 37 37 38 38 38 39 39 39 40 41 41
34 34 34 34 34 35 34 34 34 34 34 34 33 33 33 32 33 33 33 33 33 33 34 34 34 34 34 34 35 36 36 37 37 38 39 39 39 40 40 41 42 42 42 42
35 35 35 35 35 35 35 35 35 35 35 35 35 35 34 34 35 35 35 35 35 35 35 36 36 36 36 36 36 37 37 38 38 39 39 40 40 41 42 42 43 44 43 43
35 35 35 35 36 36 35 35 35 35 35 35 36 36 36 35 35 35 35 35 35 36 36 37 37 37 38 38 38 38 39 39 40 40 40 41 41 42 43 44 44 44 44 45
36 35 35 35 36 36 36 36 36 36 36 36 36 37 37 37 37 36 36 36 37 37 37 38 38 39 39 40 40 40 41 41 42 42 43 43 44 44 44 45 45 45 45 46
36 36 36 35 36 36 36 36 36 37 37 37 37 37 37 38 38 39 39 39 39 39 39 39 40 41 41 41 42 43 43 44 44 44 44 45 45 46 45 45 46 46 46 47
35 36 36 36 36 36 36 36 36 37 38 38 38 38 39 40 40 40 40 40 41 41 41 41 41 42 42 42 43 44 45 45 45 46 46 46 46 46 45 45 46 46 47 47
35 35 35 35 35 36 36 36 36 37 37 38 38 39 40 40 41 42 42 41 42 42 42 42 43 43 43 43 44 44 45 45 46 46 46 46 46 45 46 46 46 46 46 46
34 34 34 34 34 34 35 35 35 35 35 36 37 37 38 39 40 41 41 41 41 42 42 43 43 43 44 44 44 45 45 46 46 46 46 46 46 46 47 47 47 46 46 47
Wind_Direction
229 229 228 225 228 232 237 242 245 240 240 241 239 235 232 230 228 226 226 225 227 229 231 230 229 230 232 236 239 241 244 248 254 258 262 266 268 271 277 283 290 296 302 308
231 228 226 226 228 232 238 242 243 245 242 240 240 237 235 234 234 233 231 229 226 229 231 232 233 232 234 238 242 245 249 251 255 260 263 265 268 272 278 284 289 294 299 304
234 229 229 228 232 237 240 244 247 248 244 242 241 239 236 236 235 233 232 232 230 232 235 235 235 234 237 241 244 247 249 252 257 261 263 265 268 273 278 283 288 293 297 300
239 235 235 234 235 242 246 248 249 249 247 244 245 243 237 237 238 232 231 232 233 236 238 238 239 239 241 245 247 249 251 254 257 261 266 269 269 272 276 282 286 290 293 297
242 241 242 237 237 242 247 249 246 247 246 245 245 244 240 239 237 234 235 237 240 241 242 243 242 242 244 247 250 252 254 257 260 262 267 270 270 273 276 280 285 288 291 294
241 244 244 240 240 242 247 246 243 245 245 246 247 246 243 243 240 238 240 242 243 244 245 246 244 245 247 249 252 255 257 260 261 263 267 269 271 274 277 280 284 287 289 292
240 243 244 242 242 244 247 247 245 247 248 247 247 248 247 247 245 240 241 243 245 246 248 247 247 247 248 250 253 256 259 261 261 264 267 269 272 275 278 280 283 285 288 291
241 244 245 245 246 246 249 248 247 248 248 250 250 250 250 249 248 245 245 247 248 248 249 249 249 249 250 253 255 258 261 264 265 267 269 271 274 277 279 282 283 285 287 289
242 245 246 246 246 247 249 248 247 248 249 250 250 249 249 248 246 246 247 248 249 249 251 250 251 252 252 254 256 259 261 263 266 268 271 274 276 278 280 283 284 285 286 289
242 243 244 246 246 249 251 250 250 250 251 251 252 249 248 248 248 250 251 251 251 252 253 253 251 251 254 257 260 261 262 264 267 269 272 275 277 279 281 283 284 285 287 289
242 243 243 245 246 247 248 249 251 252 253 254 255 253 250 249 248 248 250 251 251 252 253 253 253 253 256 260 262 264 264 266 268 271 274 276 277 279 281 282 283 284 286 288
243 244 244 244 245 247 248 249 250 251 252 254 255 254 253 251 250 249 249 250 252 252 254 254 255 257 259 261 264 265 266 268 270 273 275 276 277 278 280 282 283 285 287 288
244 243 244 246 247 247 249 247 248 249 251 252 253 253 253 251 251 252 251 251 253 255 256 257 258 259 260 262 264 266 268 270 272 273 275 277 277 279 281 282 283 285 286 288
244 245 246 247 248 248 248 247 248 250 252 254 254 254 254 254 253 254 255 255 255 256 258 259 260 261 263 264 265 267 268 270 273 273 274 276 278 279 281 282 283 285 286 288
243 244 246 247 249 249 249 249 250 251 252 253 253 253 254 255 256 255 255 256 256 257 257 259 261 263 265 265 266 267 268 270 273 274 275 278 279 280 281 282 283 285 286 288
244 245 246 247 248 249 249 249 250 250 252 252 252 253 254 255 255 256 256 256 257 257 258 260 261 263 264 265 267 267 269 271 273 275 277 279 280 282 282 283 284 285 286 287
244 245 246 248 249 249 248 249 250 251 252 253 254 255 255 255 255 256 256 255 256 257 258 260 262 264 265 266 267 268 270 272 274 276 277 279 281 282 283 283 284 285 286 287
245 246 246 248 250 249 250 250 250 252 254 255 256 257 256 255 256 256 256 256 258 259 261 263 264 266 266 267 268 269 271 273 274 276 277 278 280 281 282 283 284 285 286 287
246 246 245 246 247 249 250 251 252 253 255 256 256 256 256 256 256 256 256 257 258 260 262 264 266 267 268 269 271 272 273 274 275 276 277 279 281 282 282 283 284 285 286 287
246 247 247 247 248 249 250 251 252 253 254 255 256 256 256 257 257 258 258 259 260 261 263 264 266 268 270 271 272 273 274 276 277 278 278 280 282 282 282 283 284 285 286 287
247 248 248 249 251 251 252 253 254 254 255 255 255 256 257 258 259 259 259 260 261 262 263 264 266 268 270 271 272 274 275 276 278 279 280 281 282 282 282 283 284 285 286 287
248 249 250 251 252 252 253 254 255 256 256 256 256 256 257 258 259 260 260 260 261 262 264 265 267 268 269 270 272 273 275 276 277 279 280 281 281 282 283 284 284 285 285 286
248 249 251 252 253 253 254 254 255 256 256 257 257 257 257 258 258 259 260 261 263 264 266 267 268 268 270 271 272 273 275 277 278 279 280 280 281 283 283 284 284 285 286 287
250 251 253 254 255 255 255 255 254 255 256 256 257 258 258 258 259 260 260 261 263 265 266 268 269 270 270 271 272 274 275 276 278 280 280 280 281 282 283 284 284 285 286 287
251 252 254 255 256 256 256 256 256 256 257 257 258 259 259 260 261 261 262 263 264 265 266 268 269 270 271 273 274 275 277 277 278 279 280 281 282 282 283 284 284 285 285 287
252 252 254 256 257 257 257 257 258 258 259 259 260 261 262 262 263 263 263 264 265 265 267 268 269 270 271 273 275 276 278 278 279 280 281 281 281 282 282 283 285 285 286 287
254 254 255 255 256 256 256 256 256 258 259 259 260 261 263 264 264 265 265 264 265 266 267 268 270 271 272 273 275 276 278 279 279 279 279 280 281 282 283 284 284 286 287 288
Height
5835 5836 5837 5838 5839 5840 5841 5842 5843 5844 5845 5847 5848 5849 5850 5851 5852 5853 5854 5855 5857 5858 5860 5861 5862 5863 5864 5865 5866 5867 5867 5868 5868 5868 5868 5868 5868 5868 5867 5867 5866 5865 5863 5862
5832 5833 5834 5835 5837 5838 5839 5840 5840 5841 5843 5844 5845 5846 5847 5848 5849 5850 5852 5853 5855 5856 5857 5858 5859 5861 5862 5862 5863 5864 5864 5865 5865 5865 5865 5865 5865 5865 5864 5864 5863 5862 5861 5859
5829 5830 5830 5832 5834 5835 5836 5837 5838 5838 5841 5841 5842 5843 5844 5845 5847 5848 5849 5851 5852 5853 5855 5856 5857 5858 5858 5859 5860 5861 5861 5862 5862 5862 5862 5862 5862 5862 5861 5860 5860 5859 5857 5856
5825 5827 5827 5832 5831 5832 5832 5833 5834 5835 5836 5837 5838 5839 5841 5842 5844 5845 5846 5848 5849 5850 5851 5853 5853 5854 5855 5856 5856 5857 5858 5858 5858 5858 5858 5858 5858 5858 5857 5857 5856 5855 5854 5852
5820 5821 5823 5827 5828 5828 5829 5830 5831 5832 5833 5834 5834 5836 5837 5839 5840 5842 5843 5844 5845 5846 5847 5848 5849 5850 5851 5852 5853 5853 5854 5854 5854 5854 5854 5854 5854 5854 5853 5852 5851 5850 5849 5848
5816 5817 5819 5823 5823 5823 5825 5825 5827 5828 5829 5830 5831 5832 5835 5835 5836 5838 5839 5840 5841 5842 5843 5844 5845 5846 5847 5848 5849 5849 5850 5850 5850 5850 5850 5850 5850 5849 5848 5848 5847 5846 5844 5843
5810 5812 5814 5817 5818 5819 5821 5822 5823 5824 5825 5826 5827 5829 5831 5831 5832 5833 5835 5836 5837 5838 5839 5840 5841 5842 5843 5844 5845 5845 5845 5845 5845 5845 5845 5845 5844 5844 5843 5842 5841 5840 5839 5837
5805 5807 5811 5811 5812 5814 5815 5816 5818 5819 5820 5822 5823 5824 5825 5826 5827 5829 5830 5831 5832 5833 5834 5835 5836 5837 5838 5839 5840 5840 5840 5840 5840 5840 5840 5839 5839 5838 5838 5837 5836 5834 5833 5831
5800 5803 5804 5805 5807 5808 5809 5811 5812 5814 5815 5817 5818 5819 5820 5821 5822 5823 5825 5826 5827 5828 5829 5830 5831 5832 5833 5834 5834 5834 5834 5835 5835 5835 5834 5834 5833 5832 5831 5830 5829 5828 5826 5824
5793 5795 5797 5799 5801 5802 5803 5805 5807 5808 5809 5811 5812 5813 5814 5816 5817 5818 5819 5820 5821 5822 5824 5824 5825 5826 5827 5828 5828 5828 5828 5829 5829 5828 5828 5827 5827 5826 5825 5823 5822 5820 5819 5817
5786 5788 5790 5792 5794 5796 5797 5798 5800 5802 5803 5805 5806 5807 5809 5810 5811 5812 5813 5814 5816 5817 5817 5818 5819 5820 5821 5821 5821 5822 5822 5822 5822 5821 5821 5820 5819 5818 5817 5816 5814 5813 5811 5809
5779 5782 5784 5786 5788 5789 5791 5792 5794 5795 5797 5798 5800 5801 5802 5803 5804 5806 5807 5808 5809 5810 5811 5812 5813 5814 5814 5814 5815 5815 5815 5815 5814 5814 5813 5812 5811 5810 5809 5808 5806 5804 5802 5800
5772 5774 5776 5778 5780 5782 5784 5785 5787 5788 5790 5791 5793 5794 5795 5797 5798 5799 5800 5801 5802 5803 5804 5805 5806 5807 5807 5807 5807 5807 5807 5807 5806 5806 5805 5804 5803 5802 5801 5799 5797 5795 5793 5791
5764 5766 5768 5771 5772 5774 5776 5777 5779 5781 5782 5784 5786 5787 5788 5789 5791 5792 5793 5794 5795 5796 5797 5798 5799 5799 5799 5800 5800 5800 5799 5799 5798 5797 5797 5796 5795 5793 5792 5790 5789 5786 5784 5781
5756 5758 5760 5762 5764 5766 5768 5769 5771 5773 5775 5776 5778 5779 5781 5782 5783 5784 5785 5786 5787 5788 5789 5790 5791 5791 5791 5791 5791 5791 5791 5791 5790 5789 5788 5787 5786 5784 5782 5781 5779 5777 5774 5772
5747 5749 5751 5754 5756 5758 5760 5761 5763 5765 5767 5768 5770 5771 5773 5774 5775 5776 5777 5778 5779 5780 5781 5782 5782 5782 5783 5783 5783 5783 5782 5782 5781 5780 5779 5777 5776 5774 5772 5770 5768 5766 5764 5762
5738 5740 5743 5745 5747 5749 5751 5753 5754 5756 5758 5760 5761 5763 5764 5765 5766 5768 5769 5770 5771 5772 5772 5773 5773 5774 5774 5774 5774 5773 5773 5772 5771 5770 5769 5767 5765 5764 5762 5760 5758 5755 5753 5750
5728 5731 5733 5735 5738 5740 5742 5744 5745 5747 5749 5751 5753 5754 5755 5757 5758 5759 5760 5761 5762 5763 5763 5764 5764 5764 5764 5764 5763 5763 5762 5762 5761 5760 5758 5756 5754 5753 5751 5749 5746 5744 5742 5739
5718 5720 5723 5725 5728 5730 5732 5734 5736 5737 5739 5741 5743 5745 5746 5747 5749 5750 5750 5751 5752 5753 5754 5754 5753 5753 5753 5753 5753 5752 5751 5750 5749 5748 5747 5745 5743 5741 5739 5737 5735 5732 5729 5727
5708 5710 5712 5715 5717 5720 5722 5724 5726 5728 5729 5731 5732 5734 5736 5737 5738 5739 5740 5741 5742 5743 5743 5743 5743 5743 5742 5742 5741 5741 5740 5739 5737 5736 5734 5733 5731 5729 5727 5724 5722 5719 5717 5714
5698 5700 5702 5704 5707 5709 5711 5713 5715 5717 5719 5720 5722 5723 5725 5726 5727 5728 5729 5731 5731 5731 5732 5732 5732 5732 5731 5731 5730 5729 5728 5727 5725 5724 5722 5720 5718 5716 5714 5712 5709 5706 5704 5701
5687 5689 5691 5694 5696 5698 5700 5702 5704 5706 5707 5709 5711 5712 5713 5715 5716 5717 5718 5719 5719 5719 5720 5720 5720 5719 5719 5718 5718 5717 5716 5714 5713 5711 5709 5708 5705 5703 5701 5698 5695 5693 5690 5687
5676 5678 5681 5683 5685 5687 5689 5691 5692 5694 5696 5697 5699 5700 5702 5703 5704 5705 5706 5707 5707 5707 5707 5708 5707 5707 5707 5706 5705 5704 5703 5702 5700 5698 5696 5694 5692 5690 5687 5684 5682 5679 5676 5673
5664 5667 5669 5671 5673 5675 5677 5679 5680 5682 5684 5685 5687 5688 5689 5690 5692 5693 5693 5694 5694 5695 5695 5695 5694 5694 5693 5693 5692 5691 5690 5688 5686 5685 5683 5680 5678 5676 5673 5670 5668 5665 5662 5659
5653 5655 5657 5659 5661 5663 5665 5667 5668 5670 5671 5673 5674 5675 5677 5678 5679 5679 5680 5681 5681 5681 5681 5681 5681 5680 5680 5679 5678 5677 5675 5674 5672 5670 5668 5666 5664 5661 5659 5656 5653 5650 5648 5645
5642 5644 5646 5648 5649 5651 5653 5654 5656 5657 5659 5660 5661 5662 5663 5664 5665 5666 5667 5667 5667 5668 5668 5668 5667 5667 5666 5665 5664 5663 5661 5659 5658 5656 5654 5651 5649 5647 5644 5641 5639 5636 5633 5630
5630 5632 5634 5636 5637 5639 5641 5642 5644 5645 5646 5647 5648 5649 5650 5651 5652 5652 5653 5653 5653 5654 5654 5653 5653 5652 5652 5651 5650 5648 5647 5645 5643 5641 5639 5637 5634 5632 5630 5627 5624 5622 5619 5616